www.pogodaiklimat.ru

Погода и климат >> Архив погоды >> Вьетнам >> Каобанг


ПОГОДА в Каобанге

  • Прогноз погоды в Каобанге
  • Монитор погоды в Каобанге

АРХИВ ПОГОДЫ в Каобанге

Время (UTC), дата Ветер
(напр.,м/с)
 
Видим.   Явления Облачность Т
(С)
Тd
(С)
f
(%)
Тe
(С)
Тes
(С)
Комфортность P
(гПа)
Po
(гПа)
Тmin
(С)
Tmax
(С)
R
(мм)
R24
(мм)
S
(см)
03 10.06 В 3 20 км 9/4 600 м
[Cu med, cong Cs]
+31.6 +25.4 70 +46 +53 опасность
перегрева
1001.0 974.1
06 10.06 В 2 20 км 9/4 600 м
[Cu med, cong Ac lent Cs]
+34.2 +27.0 66 +52 +59 опасность
перегрева
998.6 972.0
09 10.06 В 5 20 км гроза без осадков 9/6 300 м
[Cb cap Ci fib]
+33.8 +26.0 64 +50 +51 опасность
перегрева
997.4 970.8
12 10.06 З 4 2000 м гроза, ливневой дождь 10/10 300 м
[Cb cap]
+24.3 +22.9 92 +32 +32 очень
душно
1002.2 974.6 +34.6 5
15 10.06 штиль 0 10 км слаб. дождь {гроза} 10/10 300 м
[Cu Sc]
+24.2 +23.4 95 +32 +32 очень
душно
1003.5 975.9
18 10.06 штиль 0 4000 м дымка {гроза, ливн. осадки} 10/10 300 м
[Cu Sc]
+24.4 +23.5 95 +33 +33 очень
душно
1003.2 975.6 7
21 10.06 штиль 0 4000 м гроза, ливневой дождь туман 10/10 300 м
[Cb cap]
+24.4 +23.8 96 +33 +33 очень
душно
1002.8 975.2
00 11.06 В 3 2000 м гроза, ливневой дождь 10/10
[Cb cap]
+23.3 +22.8 97 +32 +32 очень
душно
1005.3 977.5 +23.3 49
03 11.06 Ю 1 10 км гроза, ливневой дождь 10/10 300 м
[Cb cap]
+23.5 +23.0 97 +31 +31 очень
душно
1005.5 977.7
06 11.06 ЮВ 2 20 км {гроза, ливн. осадки} 9/9 600 м
[Cu Sc]
+26.0 +23.3 85 +35 +37 очень
душно
1002.6 975.1 11
09 11.06 З 1 20 км 9/9 600 м
[Cu Sc]
+27.5 +24.0 81 +38 +39 очень
душно
1000.5 973.2
12 11.06 В 1 20 км 6/4
[Cu Sc Ac lent]
+26.6 +24.8 90 +38 +38 очень
душно
1001.0 973.5 +28.0 11
15 11.06 ЮЗ 1 20 км 9/9 300 м
[Cu Sc]
+25.8 +24.8 94 +37 +37 очень
душно
1003.5 976.0
18 11.06 штиль 0 20 км 10/10 300 м
[Cu Sc]
+25.6 +24.4 93 +36 +36 очень
душно
1002.6 975.1
21 11.06 штиль 0 20 км гроза без осадков {ливн. осадки} туман 10/10 300 м
[Cb cap]
+25.4 +24.8 96 +36 +36 очень
душно
1002.0 974.5
00 12.06 штиль 0 4000 м дымка {гроза, ливн. осадки} 10/10
[Cu Sc]
+25.9 +25.1 95 +37 +37 очень
душно
1003.7 976.2 +25.2 14
03 12.06 В 1 20 км 9/9 600 м
[Cu Sc]
+29.6 +25.9 81 +44 +47 опасность
перегрева
1003.3 976.2
06 12.06 штиль 0 20 км 9/5 600 м
[Cu med, cong Cs]
+32.6 +24.9 64 +46 +58 опасность
перегрева
1001.3 974.4 14
09 12.06 ЮВ 2 20 км 9/4 600 м
[Cb calv Cs]
+34.2 +27.6 69 +54 +58 опасность
перегрева
998.9 972.3
12 12.06 ЮВ 1 20 км {гроза} 9/4
[Cb calv Cs]
+28.9 +25.5 82 +43 +43 опасность
перегрева
999.9 972.6 +34.3 14
15 12.06 ЮЗ 1 20 км гроза без осадков 9/9 300 м
[Cb cap]
+27.5 +25.8 90 +41 +41 опасность
перегрева
1002.0 974.7
18 12.06 штиль 0 2000 м гроза, ливневой дождь 10/10 300 м
[Cb cap]
+26.1 +25.2 95 +38 +38 очень
душно
1002.1 974.6 38
21 12.06 ЮЗ 1 2000 м гроза, ливневой дождь 10/10 300 м
[Cb cap]
+23.3 +23.0 98 +33 +33 очень
душно
1003.1 975.5
00 13.06 З 1 10 км гроза, ливневой дождь 10/10
[Cb cap]
+23.4 +23.1 98 +33 +33 очень
душно
1004.2 976.6 +23.0 158
03 13.06 ЮЗ 1 10 км гроза, ливневой дождь 10/8 300 м
[Cb cap As op]
+23.8 +23.2 96 +32 +32 очень
душно
1005.9 978.1 6
06 13.06 З 2 20 км {гроза, ливн. осадки} 9/9 600 м
[Cu Sc]
+26.1 +24.2 89 +36 +38 очень
душно
1002.6 975.1 7
09 13.06 В 1 20 км 9/4 600 м
[Cu Sc Cs]
+29.5 +25.7 80 +44 +48 опасность
перегрева
1000.6 973.5
12 13.06 штиль 0 20 км зарница 9/9 300 м
[Cb cap]
+27.6 +25.9 90 +41 +41 опасность
перегрева
1002.3 975.0 +29.8 7
15 13.06 штиль 0 20 км гроза без осадков 10/10 300 м
[Cb cap]
+26.2 +25.3 95 +38 +38 очень
душно
1004.5 977.0
18 13.06 штиль 0 4000 м дымка {гроза} 10/10 300 м
[Cu Sc]
+25.8 +24.9 95 +37 +37 очень
душно
1003.1 975.6
21 13.06 штиль 0 4000 м гроза, ливневой дождь 10/10 300 м
[Cb cap]
+23.8 +23.2 96 +32 +32 очень
душно
1003.3 975.7
00 14.06 штиль 0 10 км слаб. дождь {гроза} 10/10
[Cu Sc]
+24.4 +23.9 97 +33 +33 очень
душно
1004.3 976.7 +23.8 40
03 14.06 СЗ 1 10 км слаб. дождь 10/10 300 м
[Cu Sc]
+26.7 +24.9 90 +38 +38 очень
душно
1005.5 977.9
06 14.06 З 1 20 км {дождь} 9/9 600 м
[Cu Sc]
+28.4 +25.5 84 +42 +44 опасность
перегрева
1002.9 975.6 0.0
09 14.06 Ю 1 20 км 9/9 600 м
[Cu Sc]
+30.1 +24.8 73 +43 +44 опасность
перегрева
999.6 972.5
12 14.06 штиль 0 20 км 10/10
[Cu Sc]
+28.4 +26.5 89 +43 +43 опасность
перегрева
1001.8 974.5 +30.6 0.0
15 14.06 штиль 0 20 км 9/9 300 м
[Cu Sc]
+26.8 +25.6 93 +39 +39 очень
душно
1003.5 976.0
18 14.06 ЮЗ 1 4000 м в посл. час дождь туман 10/10 300 м
[Cu Sc]
+26.4 +25.5 95 +39 +39 очень
душно
1003.0 975.5 0.7
21 14.06 штиль 0 4000 м гроза, ливневой дождь туман 10/10 300 м
[Cb cap]
+26.2 +25.4 95 +38 +38 очень
душно
1001.9 974.4
00 15.06 Ю 2 20 км гроза без осадков туман 10/10 300 м
[Cb cap]
+26.2 +25.4 95 +38 +38 очень
душно
1002.9 975.4 +26.0 1
03 15.06 В 1 20 км {гроза} 9/9 300 м
[Cu Sc]
+28.0 +26.0 89 +42 +44 опасность
перегрева
1003.2 975.9
06 15.06 В 2 20 км {гроза} 8/8 600 м
[Cu med, cong]
+31.8 +27.4 78 +51 +55 опасность
перегрева
1001.7 974.8 1
09 15.06 штиль 0 20 км 9/9 300 м
[Cu Sc]
+31.4 +27.1 78 +49 +50 опасность
перегрева
999.5 972.6
12 15.06 штиль 0 20 км 8/8
[Cu Sc]
+29.7 +26.9 85 +47 +47 опасность
перегрева
999.9 972.8 +32.7 1
15 15.06 Ю 1 20 км 3/3 1500 м
[Sc]
+27.5 +26.3 93 +42 +42 опасность
перегрева
1002.1 974.8
18 15.06 ЮЗ 1 20 км зарница 8/8 300 м
[Cb cap]
+26.8 +25.6 93 +39 +39 очень
душно
1001.9 974.4
21 15.06 С 1 20 км 9/9 300 м
[Cu Sc]
+26.7 +26.0 96 +40 +40 очень
душно
1001.0 973.5
00 16.06 штиль 0 4000 м дымка 9/9 300 м
[Cu Sc]
+26.6 +25.9 96 +40 +40 очень
душно
1001.8 974.3 +26.2
03 16.06 ЮВ 1 20 км 9/9 300 м
[Cu Sc]
+29.9 +26.1 80 +45 +47 опасность
перегрева
1001.8 974.7
06 16.06 В 2 20 км 9/4 600 м
[Cu Sc Cs]
+33.3 +27.7 73 +53 +64 опасность
перегрева
1000.2 973.5
09 16.06 В 1 20 км {гроза, ливн. осадки} 9/3 600 м
[Cu med, cong Cs]
+33.5 +27.6 71 +53 +58 опасность
перегрева
998.0 971.4
12 16.06 Ю 1 20 км {гроза, ливн. осадки} 9/4 300 м
[Cb calv Cs]
+30.7 +27.2 82 +49 +49 опасность
перегрева
999.0 972.1 +34.4 6
15 16.06 Ю 4 20 км гроза без осадков 10/10 300 м
[Cb cap]
+29.4 +25.7 81 +44 +44 опасность
перегрева
1001.2 974.1
18 16.06 Ю 1 10 км гроза, ливневой дождь 10/10 300 м
[Cb cap]
+25.8 +24.6 93 +36 +36 очень
душно
1002.6 975.1 0.7
21 16.06 штиль 0 20 км {дождь} 10/10 300 м
[Cu Sc]
+25.4 +24.5 95 +36 +36 очень
душно
1002.7 975.2
00 17.06 Ю 1 20 км {дождь} 10/10 300 м
[Cu Sc]
+25.7 +24.8 95 +36 +36 очень
душно
1003.8 976.3 +25.3 0.8

 

Местоположение метеостанции Каобанг (Вьетнам): широта 22.67 долгота 106.25 высота над уровнем моря 243 м.

В архиве по умолчанию представлена погода в Каобанге за последнюю неделю. Архивные данные за месяц целиком и за предыдущие месяцы, начиная с января 2011 года, Вы можете получить, выбрав интересующий диапазон дат из раскрывающегося списка и нажав кнопку "Ввод!".


*Определитесь, кто Вы:
робот инопланетянин человек

Внимание! Время в таблицах - всемирное. Для получения местного времени необходимо прибавить поправку, которая равна 7 ч.

Смотрите также архив погоды в соседних городах и на ближайших метеорологических станциях:

Погода в Лончжоу (Гуанси-Чжуанский автономный район, Китай) (61 км)
Погода в Баккане (Вьетнам) (72 км)
Погода в Напо (Гуанси-Чжуанский автономный район, Китай) (77 км)
Погода в Лангсоне (Вьетнам) (107 км)
Погода в Байсэ (Гуанси-Чжуанский автономный район, Китай) (141 км)
Погода в Ханое (Вьетнам) (188 км)
Погода в Хайфоне (Вьетнам) (195 км)
Погода в Гуаннане (Юньнань, Китай) (198 км)
Погода в Наньнине (Гуанси-Чжуанский автономный район, Китай) (201 км)
Погода в Пхульене (Вьетнам) (212 км)

Пояснения к столбцам:

Ветер - указаны скорость ветра в м/с - средняя за 10 мин, порывы в срок и между сроками (в фигурных скобках) и направление, откуда дует ветер: С - северный, СВ - северо-восточный, В - восточный, ЮВ - юго-восточный, Ю - южный, ЮЗ - юго-западный, З - западный, СЗ - северо-западный.
Видимость - горизонтальная дальность видимости в метрах или километрах. При видимости от 1 до 10 км при отсутствии осадков обычно наблюдается дымка, при ухудшении видимости до 1 км и менее - туман. В сухую погоду видимость может ухудшаться дымом, пылью или мглою.
Явления - указаны атмосферные явления, наблюдавшиеся в срок или в последний час перед сроком; фигурными скобками обозначены явления, наблюдавшиеся между сроками (за 1-3 часа до срока); квадратными скобками обозначены град или гололедные отложения с указанием их диаметра в мм.
Облачность - указаны через наклонную черту общая и нижняя облачность в баллах и высота нижней границы облаков в метрах; квадратными скобками обозначены формы облаков: Ci - перистые, Cs - перисто-слоистые, Cc - перисто-кучевые, Ac - высококучевые, As - высокослоистые, Sc - слоисто-кучевые, Ns - слоисто-дождевые, Cu - кучевые, Cb - кучево-дождевые. Подробнее классификацию облаков см. в Атласе облаков (PDF).
T - Температура воздуха - температура, измеренная на высоте 2 м над землей.
Td - Температура точки росы - температура, при понижении до которой содержащийся в воздухе водяной пар достигнет насыщения.
f - Относительная влажность воздуха - влажноcть воздуха, измеренная на высоте 2 м над землей.
Te - Эффективная температура - температура, которую ощущает одетый по сезону человек в тени. Характеристика душности погоды. При расчете учитывается влияние влажности воздуха и скорости ветра на теплоощущения человека.
Tes - Эффективная температура на солнце - температура, которую ощущает человек, с поправкой на солнечный нагрев. Характеристика знойности погоды. Зависит от высоты солнца над горизонтом, облачности и скорости ветра. Ночью, в пасмурную погоду, а также при ветре 12 м/с и более поправка равна нулю.
P - Атмосферное давление - приведенное к уровню моря атмосферное давление.
Po - Атмосферное давление - измеренное на уровне метеостанции атмосферное давление.
Tmin - Минимальная температура - минимум температуры воздуха на высоте 2 м над землей.
Tmax - Максимальная температура - максимум температуры воздуха на высоте 2 м над землей.
R - Количество осадков - Количество выпавших осадков за период времени, мм. При наведении курсора мыши на число - период времени, за который выпало указанное количество осадков.
R24 - Количество осадков - Количество выпавших осадков за 24 часа, мм.
S - Снежный покров - Высота снежного покрова, см. При наведении курсора мыши на число - состояние снежного покрова и степень покрытия местности в баллах.